sat.trackr.live / text

‹ back to catalog

ONEWEB-0209

NORAD 48215 · 2021-031F

PAYLOAD ACTIVE UNKNOWN

§ Identity

Operator
Country
UK
Launch date
2021-04-25
Launch site
VOSTO
Launch vehicle
Mass (kg)
RCS (m²)

Purposes: comms

External: N2YO · Heavens-Above · Gunter

§ Orbital elements

Epoch: 2026-05-25T02:27:46.532160Z

Period
109.55 min
Inclination
87.8933°
Eccentricity
0.0001804
Mean motion
13.14503618 rev/d
Perigee alt
1,204.4 km
Apogee alt
1,207.2 km
Semi-major
7,583.9 km
B*
5.2928e-4
RAAN
294.3169°
Arg perigee
105.1175°
Mean anomaly
255.0154°
Rev number
24,534

§ Raw data

ONEWEB-02091 48215U 21031F   26145.10262190  .00000209  00000+0  52928-3 0  99952 48215  87.8933 294.3169 0001804 105.1175 255.0154 13.14503618245349

JSON: /api/v1/satellites/48215 · /tle

For live sub-satellite position, see the globe view (requires WebGL).

§ Visibility from observer

Set your observer location to see the next 7 days of passes ≥ 10°. The values pass through the URL so the page stays shareable.

No JS? Fill the form by hand. The geolocation button needs JavaScript.